Wetterdaten: aktuell Donnerstag, 19.07.2018 15:10
Datum Zeit Temp. A. Wasser Luftdruck Regen Wind Richtung Richtung Solar Taupunkt Windben
19.07.2018 15:10 26.6 C 23.9 C 1013.4 hPa 0.0 mm 0.0 kts (0 Bft) N 360 721 W/m 12.6 C 0.0 kts (0 Bft)
19.07.2018 15:00 26.3 C 23.9 C 1013.6 hPa 0.0 mm 0.0 kts (0 Bft) N 360 729 W/m 15.3 C 0.0 kts (0 Bft)
19.07.2018 14:50 25.7 C 23.9 C 1013.5 hPa 0.0 mm 0.0 kts (0 Bft) N 360 737 W/m 15.4 C 0.0 kts (0 Bft)
19.07.2018 14:40 25.4 C 23.9 C 1013.6 hPa 0.0 mm 0.0 kts (0 Bft) N 360 745 W/m 17.1 C 0.0 kts (0 Bft)
19.07.2018 14:30 25.4 C 23.9 C 1013.8 hPa 0.0 mm 0.0 kts (0 Bft) N 360 747 W/m 16.2 C 0.0 kts (0 Bft)
19.07.2018 14:20 25.1 C 23.9 C 1013.9 hPa 0.0 mm 0.0 kts (0 Bft) N 360 758 W/m 16.5 C 0.0 kts (0 Bft)
19.07.2018 14:10 24.8 C 23.9 C 1014.1 hPa 0.0 mm 0.0 kts (0 Bft) N 360 765 W/m 16.2 C 0.0 kts (0 Bft)
19.07.2018 14:00 24.6 C 23.9 C 1014.2 hPa 0.0 mm 0.0 kts (0 Bft) N 360 766 W/m 16.6 C 0.0 kts (0 Bft)
19.07.2018 13:50 24.3 C 23.9 C 1014.3 hPa 0.0 mm 0.0 kts (0 Bft) N 360 765 W/m 16.3 C 0.0 kts (0 Bft)
19.07.2018 13:40 24.2 C 23.9 C 1014.4 hPa 0.0 mm 0.0 kts (0 Bft) N 360 759 W/m 16.2 C 0.0 kts (0 Bft)
19.07.2018 13:30 24.1 C 23.9 C 1014.4 hPa 0.0 mm 0.0 kts (0 Bft) N 360 752 W/m 16.4 C 0.0 kts (0 Bft)
19.07.2018 13:20 23.8 C 23.9 C 1014.5 hPa 0.0 mm 0.0 kts (0 Bft) N 360 749 W/m 16.1 C 0.0 kts (0 Bft)
19.07.2018 13:10 23.7 C 23.9 C 1014.6 hPa 0.0 mm 0.0 kts (0 Bft) N 360 751 W/m 15.5 C 0.0 kts (0 Bft)
19.07.2018 13:00 23.5 C 23.3 C 1014.7 hPa 0.0 mm 0.0 kts (0 Bft) N 360 747 W/m 15.8 C 0.0 kts (0 Bft)
19.07.2018 12:50 23.4 C 23.3 C 1014.8 hPa 0.0 mm 0.0 kts (0 Bft) N 360 742 W/m 15.2 C 0.0 kts (0 Bft)
19.07.2018 12:40 23.3 C 23.3 C 1014.9 hPa 0.0 mm 0.0 kts (0 Bft) N 360 735 W/m 15.6 C 0.0 kts (0 Bft)
19.07.2018 12:30 23.3 C 23.3 C 1014.9 hPa 0.0 mm 0.0 kts (0 Bft) N 360 724 W/m 15.6 C 0.0 kts (0 Bft)
19.07.2018 12:20 23.6 C 23.3 C 1014.9 hPa 0.0 mm 0.0 kts (0 Bft) N 360 721 W/m 15.6 C 0.0 kts (0 Bft)
19.07.2018 12:10 23.2 C 23.3 C 1014.9 hPa 0.0 mm 0.0 kts (0 Bft) N 360 712 W/m 15.5 C 0.0 kts (0 Bft)
19.07.2018 12:00 23.0 C 23.3 C 1014.9 hPa 0.0 mm 0.0 kts (0 Bft) N 360 701 W/m 15.8 C 0.0 kts (0 Bft)
19.07.2018 11:50 22.8 C 23.3 C 1015.0 hPa 0.0 mm 0.0 kts (0 Bft) N 360 686 W/m 15.9 C 0.0 kts (0 Bft)
19.07.2018 11:40 22.7 C 23.3 C 1015.0 hPa 0.0 mm 0.0 kts (0 Bft) N 360 671 W/m 15.8 C 0.0 kts (0 Bft)
19.07.2018 11:30 22.4 C 23.3 C 1015.0 hPa 0.0 mm 0.0 kts (0 Bft) N 360 657 W/m 15.7 C 0.0 kts (0 Bft)
19.07.2018 11:20 22.3 C 23.3 C 1015.0 hPa 0.0 mm 0.0 kts (0 Bft) N 360 645 W/m 15.4 C 0.0 kts (0 Bft)
19.07.2018 11:10 22.1 C 23.3 C 1015.1 hPa 0.0 mm 0.0 kts (0 Bft) N 360 628 W/m 15.2 C 0.0 kts (0 Bft)
19.07.2018 11:00 21.7 C 23.3 C 1015.1 hPa 0.0 mm 0.0 kts (0 Bft) N 360 610 W/m 15.3 C 0.0 kts (0 Bft)
19.07.2018 10:50 21.3 C 23.3 C 1015.1 hPa 0.0 mm 0.0 kts (0 Bft) N 360 592 W/m 15.1 C 0.0 kts (0 Bft)
19.07.2018 10:40 21.2 C 23.3 C 1015.2 hPa 0.0 mm 0.0 kts (0 Bft) N 360 578 W/m 14.8 C 0.0 kts (0 Bft)
19.07.2018 10:30 21.3 C 23.3 C 1015.1 hPa 0.0 mm 0.0 kts (0 Bft) N 360 559 W/m 14.9 C 0.0 kts (0 Bft)
19.07.2018 10:20 20.9 C 23.3 C 1015.1 hPa 0.0 mm 0.0 kts (0 Bft) N 360 545 W/m 14.5 C 0.0 kts (0 Bft)
19.07.2018 10:10 21.1 C 22.8 C 1015.2 hPa 0.0 mm 0.0 kts (0 Bft) N 360 517 W/m 15.0 C 0.0 kts (0 Bft)
19.07.2018 10:00 21.0 C 22.8 C 1015.1 hPa 0.0 mm 0.0 kts (0 Bft) N 360 501 W/m 14.6 C 0.0 kts (0 Bft)
19.07.2018 09:50 21.1 C 22.8 C 1015.2 hPa 0.0 mm 0.0 kts (0 Bft) N 360 480 W/m 14.0 C 0.0 kts (0 Bft)
19.07.2018 09:40 21.0 C 22.8 C 1015.2 hPa 0.0 mm 0.0 kts (0 Bft) N 360 461 W/m 14.6 C 0.0 kts (0 Bft)
19.07.2018 09:30 21.0 C 22.8 C 1015.2 hPa 0.0 mm 0.0 kts (0 Bft) N 360 438 W/m 13.9 C 0.0 kts (0 Bft)
19.07.2018 09:20 20.9 C 22.8 C 1015.1 hPa 0.0 mm 0.0 kts (0 Bft) N 360 424 W/m 13.8 C 0.0 kts (0 Bft)
19.07.2018 09:10 20.8 C 22.8 C 1015.1 hPa 0.0 mm 0.0 kts (0 Bft) N 360 392 W/m 14.2 C 0.0 kts (0 Bft)
19.07.2018 09:00 20.7 C 22.8 C 1015.1 hPa 0.0 mm 0.0 kts (0 Bft) N 360 373 W/m 14.3 C 0.0 kts (0 Bft)
19.07.2018 08:50 20.6 C 22.8 C 1015.1 hPa 0.0 mm 0.0 kts (0 Bft) N 360 352 W/m 14.3 C 0.0 kts (0 Bft)
19.07.2018 08:40 20.4 C 22.8 C 1015.1 hPa 0.0 mm 0.0 kts (0 Bft) N 360 327 W/m 14.3 C 0.0 kts (0 Bft)
19.07.2018 08:30 20.4 C 22.8 C 1015.0 hPa 0.0 mm 0.0 kts (0 Bft) N 360 272 W/m 14.3 C 0.0 kts (0 Bft)
19.07.2018 08:20 20.4 C 22.8 C 1015.1 hPa 0.0 mm 0.0 kts (0 Bft) N 360 116 W/m 14.5 C 0.0 kts (0 Bft)
19.07.2018 08:10 20.4 C 22.8 C 1015.1 hPa 0.0 mm 0.0 kts (0 Bft) N 360 47 W/m 15.0 C 0.0 kts (0 Bft)
19.07.2018 08:00 20.3 C 22.8 C 1015.0 hPa 0.0 mm 0.0 kts (0 Bft) N 360 44 W/m 14.4 C 0.0 kts (0 Bft)
19.07.2018 07:50 20.1 C 22.8 C 1014.9 hPa 0.0 mm 0.0 kts (0 Bft) N 360 42 W/m 14.5 C 0.0 kts (0 Bft)
19.07.2018 07:40 20.1 C 22.8 C 1015.0 hPa 0.0 mm 0.0 kts (0 Bft) N 360 40 W/m 14.7 C 0.0 kts (0 Bft)
19.07.2018 07:30 20.4 C 22.8 C 1014.9 hPa 0.0 mm 0.0 kts (0 Bft) N 360 37 W/m 15.2 C 0.0 kts (0 Bft)
19.07.2018 07:20 20.2 C 22.8 C 1014.9 hPa 0.0 mm 0.0 kts (0 Bft) N 360 33 W/m 14.8 C 0.0 kts (0 Bft)
19.07.2018 07:10 20.1 C 22.8 C 1014.9 hPa 0.0 mm 0.0 kts (0 Bft) N 360 32 W/m 14.2 C 0.0 kts (0 Bft)
19.07.2018 07:00 19.2 C 22.8 C 1014.8 hPa 0.0 mm 0.0 kts (0 Bft) N 360 30 W/m 14.2 C 0.0 kts (0 Bft)
19.07.2018 06:50 19.0 C 22.8 C 1014.8 hPa 0.0 mm 0.0 kts (0 Bft) N 360 26 W/m 14.3 C 0.0 kts (0 Bft)
19.07.2018 06:40 18.7 C 22.8 C 1014.7 hPa 0.0 mm 0.0 kts (0 Bft) N 360 25 W/m 14.2 C 0.0 kts (0 Bft)
19.07.2018 06:30 18.2 C 22.8 C 1014.6 hPa 0.0 mm 0.0 kts (0 Bft) N 360 23 W/m 13.7 C 0.0 kts (0 Bft)
19.07.2018 06:20 18.1 C 22.8 C 1014.6 hPa 0.0 mm 0.0 kts (0 Bft) N 360 18 W/m 13.6 C 0.0 kts (0 Bft)
19.07.2018 06:10 18.2 C 22.8 C 1014.5 hPa 0.0 mm 0.0 kts (0 Bft) N 360 14 W/m 13.9 C 0.0 kts (0 Bft)
19.07.2018 06:00 18.3 C 22.8 C 1014.5 hPa 0.0 mm 0.0 kts (0 Bft) N 360 9 W/m 13.6 C 0.0 kts (0 Bft)
19.07.2018 05:50 18.4 C 22.8 C 1014.6 hPa 0.0 mm 0.0 kts (0 Bft) N 360 5 W/m 14.3 C 0.0 kts (0 Bft)
19.07.2018 05:40 18.9 C 22.8 C 1014.5 hPa 0.0 mm 0.0 kts (0 Bft) N 360 0 W/m 13.7 C 0.0 kts (0 Bft)
19.07.2018 05:30 18.9 C 23.3 C 1014.6 hPa 0.0 mm 0.0 kts (0 Bft) N 360 0 W/m 13.9 C 0.0 kts (0 Bft)
19.07.2018 05:20 18.4 C 23.3 C 1014.5 hPa 0.0 mm 0.0 kts (0 Bft) N 360 0 W/m 13.9 C 0.0 kts (0 Bft)
19.07.2018 05:10 18.7 C 23.3 C 1014.5 hPa 0.0 mm 0.0 kts (0 Bft) N 360 0 W/m 13.8 C 0.0 kts (0 Bft)
19.07.2018 05:00 18.4 C 23.3 C 1014.5 hPa 0.0 mm 0.0 kts (0 Bft) N 360 0 W/m 13.7 C 0.0 kts (0 Bft)
19.07.2018 04:50 18.8 C 23.3 C 1014.5 hPa 0.0 mm 0.0 kts (0 Bft) N 360 0 W/m 13.6 C 0.0 kts (0 Bft)
19.07.2018 04:40 19.1 C 23.3 C 1014.6 hPa 0.0 mm 0.0 kts (0 Bft) N 360 0 W/m 14.4 C 0.0 kts (0 Bft)
19.07.2018 04:30 19.1 C 23.3 C 1014.6 hPa 0.0 mm 0.0 kts (0 Bft) N 360 0 W/m 13.9 C 0.0 kts (0 Bft)
19.07.2018 04:20 19.3 C 23.3 C 1014.6 hPa 0.0 mm 0.0 kts (0 Bft) N 360 0 W/m 13.9 C 0.0 kts (0 Bft)
19.07.2018 04:10 19.3 C 23.3 C 1014.6 hPa 0.0 mm 0.0 kts (0 Bft) N 360 0 W/m 13.5 C 0.0 kts (0 Bft)
19.07.2018 04:00 19.3 C 23.3 C 1014.6 hPa 0.0 mm 0.0 kts (0 Bft) N 360 0 W/m 14.1 C 0.0 kts (0 Bft)
19.07.2018 03:50 19.6 C 23.3 C 1014.6 hPa 0.0 mm 0.0 kts (0 Bft) N 360 0 W/m 13.8 C 0.0 kts (0 Bft)
19.07.2018 03:40 20.8 C 23.3 C 1014.7 hPa 0.0 mm 0.0 kts (0 Bft) N 360 0 W/m 14.0 C 0.0 kts (0 Bft)
19.07.2018 03:30 22.5 C 23.3 C 1014.9 hPa 0.0 mm 0.0 kts (0 Bft) N 360 0 W/m 14.3 C 0.0 kts (0 Bft)
19.07.2018 03:20 22.6 C 23.3 C 1014.8 hPa 0.0 mm 0.0 kts (0 Bft) N 360 0 W/m 13.4 C 0.0 kts (0 Bft)
19.07.2018 03:10 22.3 C 23.3 C 1014.8 hPa 0.0 mm 0.0 kts (0 Bft) N 360 0 W/m 13.1 C 0.0 kts (0 Bft)
_ Min-Zeit 06:20 05:40 20:00 - 20:40 - - - 15:10 20:40
Minimum _ 18.1 C 22.8 C 1012.7 hPa - 0.0 kts (0 Bft) - - - 12.6 C 0.0 kts (0 Bft)
_ Max-Zeit 18:20 16:00 09:30 16:00 16:50 - - 14:00 19:30 19:40
Maximum _ 26.8 C 24.4 C 1015.2 hPa 0.0 mm 4.3 kts
N (2 Bft)
- - 766 W/m 18.7 C 6.1 kts
N (2 Bft)
Durchschnitt _ 23.1 C 23.5 C 1014.3 hPa #0.0 mm 0.8 kts (1 Bft) N - 457 W/m 15.1 C 1.1 kts (1 Bft)